Time,TemperatureF,DewpointF,PressureIn,WindDirection,WindDirectionDegrees,WindSpeedMPH,WindSpeedGustMPH,Humidity,HourlyPrecipIn,Conditions,Clouds,dailyrainin,SoftwareType,DateUTC
2013-02-20 00:00:00,37.0,24.0,29.66,WNW,292,4.0,4.0,59,0.00,,,0.53,Wunderground v.1.13,2013-02-20 05:00:00,
2013-02-20 00:05:00,36.8,23.4,29.66,SW,229,3.0,7.0,58,0.00,,,0.00,Wunderground v.1.13,2013-02-20 05:05:00,
2013-02-20 00:10:00,36.9,22.7,29.66,WSW,258,5.0,6.0,56,0.00,,,0.00,Wunderground v.1.13,2013-02-20 05:10:00,
2013-02-20 00:15:00,36.6,23.2,29.66,West,268,5.0,8.0,58,0.00,,,0.00,Wunderground v.1.13,2013-02-20 05:15:00,
2013-02-20 00:20:00,36.6,22.8,29.66,SSW,208,3.0,3.0,57,0.00,,,0.00,Wunderground v.1.13,2013-02-20 05:20:00,
2013-02-20 00:30:00,36.2,21.6,29.66,WSW,258,3.0,3.0,55,0.00,,,0.00,Wunderground v.1.13,2013-02-20 05:30:00,
2013-02-20 00:35:00,36.2,21.1,29.66,West,277,5.0,5.0,54,0.00,,,0.00,Wunderground v.1.13,2013-02-20 05:35:00,
2013-02-20 00:40:00,36.2,20.7,29.66,West,263,6.0,6.0,53,0.00,,,0.00,Wunderground v.1.13,2013-02-20 05:40:00,
2013-02-20 00:45:00,36.0,21.4,29.67,West,265,5.0,5.0,55,0.00,,,0.00,Wunderground v.1.13,2013-02-20 05:45:00,
2013-02-20 00:55:00,35.6,21.0,29.67,West,270,3.0,3.0,55,0.00,,,0.00,Wunderground v.1.13,2013-02-20 05:55:00,
2013-02-20 01:00:00,35.6,21.0,29.67,WNW,282,3.0,3.0,55,0.00,,,0.00,Wunderground v.1.13,2013-02-20 06:00:00,
2013-02-20 01:10:00,35.3,21.2,29.67,West,261,3.0,3.0,56,0.00,,,0.00,Wunderground v.1.13,2013-02-20 06:10:00,
2013-02-20 01:15:00,35.2,21.5,29.67,West,278,2.0,3.0,57,0.00,,,0.00,Wunderground v.1.13,2013-02-20 06:15:00,
2013-02-20 01:20:00,35.0,21.3,29.67,WNW,295,2.0,2.0,57,0.00,,,0.00,Wunderground v.1.13,2013-02-20 06:20:00,
2013-02-20 01:30:00,34.9,21.6,29.67,West,280,2.0,2.0,58,0.00,,,0.00,Wunderground v.1.13,2013-02-20 06:30:00,
2013-02-20 01:35:00,34.9,21.6,29.67,WSW,258,2.0,3.0,58,0.00,,,0.00,Wunderground v.1.13,2013-02-20 06:35:00,
2013-02-20 01:40:00,34.6,21.3,29.67,West,270,2.0,4.0,58,0.00,,,0.00,Wunderground v.1.13,2013-02-20 06:40:00,
2013-02-20 01:50:00,34.6,21.3,29.67,WNW,288,4.0,6.0,58,0.00,,,0.00,Wunderground v.1.13,2013-02-20 06:50:00,
2013-02-20 01:55:00,34.6,20.9,29.67,West,280,3.0,3.0,57,0.00,,,0.00,Wunderground v.1.13,2013-02-20 06:55:00,
2013-02-20 02:00:00,34.4,20.7,29.67,West,260,3.0,7.0,57,0.00,,,0.00,Wunderground v.1.13,2013-02-20 07:00:00,
2013-02-20 02:10:00,34.3,21.0,29.67,WNW,285,4.0,4.0,58,0.00,,,0.00,Wunderground v.1.13,2013-02-20 07:10:00,
2013-02-20 02:15:00,34.3,21.0,29.67,West,281,3.0,3.0,58,0.00,,,0.00,Wunderground v.1.13,2013-02-20 07:15:00,
2013-02-20 02:25:00,34.1,20.9,29.67,WSW,257,3.0,3.0,58,0.00,,,0.00,Wunderground v.1.13,2013-02-20 07:25:00,
2013-02-20 02:30:00,34.0,20.8,29.67,West,275,3.0,3.0,58,0.00,,,0.00,Wunderground v.1.13,2013-02-20 07:30:00,
2013-02-20 02:35:00,34.0,20.8,29.68,West,277,2.0,2.0,58,0.00,,,0.00,Wunderground v.1.13,2013-02-20 07:35:00,
2013-02-20 02:40:00,33.8,20.6,29.68,West,281,2.0,7.0,58,0.00,,,0.00,Wunderground v.1.13,2013-02-20 07:40:00,
2013-02-20 02:45:00,33.8,20.2,29.68,West,268,3.0,5.0,57,0.00,,,0.00,Wunderground v.1.13,2013-02-20 07:45:00,
2013-02-20 02:55:00,33.5,20.3,29.68,West,274,2.0,2.0,58,0.00,,,0.00,Wunderground v.1.13,2013-02-20 07:55:00,
2013-02-20 03:00:00,33.5,20.3,29.68,WSW,251,2.0,2.0,58,0.00,,,0.00,Wunderground v.1.13,2013-02-20 08:00:00,
2013-02-20 03:10:00,33.2,20.4,29.68,West,264,3.0,3.0,59,0.00,,,0.00,Wunderground v.1.13,2013-02-20 08:10:00,
2013-02-20 03:15:00,33.1,20.7,29.68,West,268,3.0,3.0,60,0.00,,,0.00,Wunderground v.1.13,2013-02-20 08:15:00,
2013-02-20 03:20:00,33.1,20.7,29.68,West,264,4.0,5.0,60,0.00,,,0.00,Wunderground v.1.13,2013-02-20 08:20:00,
2013-02-20 03:30:00,32.8,20.8,29.68,NW,313,4.0,5.0,61,0.00,,,0.00,Wunderground v.1.13,2013-02-20 08:30:00,
2013-02-20 03:35:00,32.7,20.7,29.68,West,277,3.0,8.0,61,0.00,,,0.00,Wunderground v.1.13,2013-02-20 08:35:00,
2013-02-20 03:40:00,32.7,20.3,29.68,WNW,284,4.0,6.0,60,0.00,,,0.00,Wunderground v.1.13,2013-02-20 08:40:00,
2013-02-20 03:45:00,32.5,20.1,29.68,WNW,299,5.0,5.0,60,0.00,,,0.00,Wunderground v.1.13,2013-02-20 08:45:00,
2013-02-20 03:55:00,32.7,19.9,29.68,West,277,5.0,5.0,59,0.00,,,0.00,Wunderground v.1.13,2013-02-20 08:55:00,
2013-02-20 04:00:00,32.5,19.7,29.68,WNW,289,4.0,4.0,59,0.00,,,0.00,Wunderground v.1.13,2013-02-20 09:00:00,
2013-02-20 04:10:00,32.4,19.7,29.68,WSW,254,3.0,6.0,59,0.00,,,0.00,Wunderground v.1.13,2013-02-20 09:10:00,
2013-02-20 04:15:00,32.2,19.9,29.68,West,270,4.0,4.0,60,0.00,,,0.00,Wunderground v.1.13,2013-02-20 09:15:00,
2013-02-20 04:20:00,32.2,19.9,29.69,West,281,4.0,4.0,60,0.00,,,0.00,Wunderground v.1.13,2013-02-20 09:20:00,
2013-02-20 04:30:00,32.1,19.8,29.69,West,268,6.0,6.0,60,0.00,,,0.00,Wunderground v.1.13,2013-02-20 09:30:00,
2013-02-20 04:35:00,31.9,19.6,29.69,WSW,254,5.0,5.0,60,0.00,,,0.00,Wunderground v.1.13,2013-02-20 09:35:00,
2013-02-20 04:40:00,31.9,19.6,29.69,West,261,6.0,6.0,60,0.00,,,0.00,Wunderground v.1.13,2013-02-20 09:40:00,
2013-02-20 04:50:00,31.5,19.6,29.69,West,265,4.0,5.0,61,0.00,,,0.00,Wunderground v.1.13,2013-02-20 09:50:00,
2013-02-20 04:55:00,31.5,19.2,29.69,WNW,285,5.0,5.0,60,0.00,,,0.00,Wunderground v.1.13,2013-02-20 09:55:00,
2013-02-20 05:00:00,31.5,19.6,29.70,West,263,5.0,6.0,61,0.00,,,0.00,Wunderground v.1.13,2013-02-20 10:00:00,
2013-02-20 05:10:00,31.3,19.4,29.70,West,280,5.0,5.0,61,0.00,,,0.00,Wunderground v.1.13,2013-02-20 10:10:00,
2013-02-20 05:15:00,31.3,19.4,29.70,West,280,5.0,6.0,61,0.00,,,0.00,Wunderground v.1.13,2013-02-20 10:15:00,
2013-02-20 05:20:00,31.3,19.4,29.71,SSW,199,5.0,5.0,61,0.00,,,0.00,Wunderground v.1.13,2013-02-20 10:20:00,
2013-02-20 05:25:00,31.3,19.4,29.71,WNW,292,4.0,4.0,61,0.00,,,0.00,Wunderground v.1.13,2013-02-20 10:25:00,
2013-02-20 05:30:00,31.2,19.3,29.71,NW,304,3.0,6.0,61,0.00,,,0.00,Wunderground v.1.13,2013-02-20 10:30:00,
2013-02-20 05:40:00,31.3,19.4,29.71,West,278,5.0,5.0,61,0.00,,,0.00,Wunderground v.1.13,2013-02-20 10:40:00,
2013-02-20 05:45:00,31.2,19.3,29.71,WNW,288,4.0,5.0,61,0.00,,,0.00,Wunderground v.1.13,2013-02-20 10:45:00,
2013-02-20 05:50:00,31.2,19.3,29.72,North,359,4.0,4.0,61,0.00,,,0.00,Wunderground v.1.13,2013-02-20 10:50:00,
2013-02-20 05:55:00,31.2,19.3,29.72,NW,311,4.0,4.0,61,0.00,,,0.00,Wunderground v.1.13,2013-02-20 10:55:00,
2013-02-20 06:05:00,31.2,19.7,29.73,West,265,4.0,4.0,62,0.00,,,0.00,Wunderground v.1.13,2013-02-20 11:05:00,
2013-02-20 06:10:00,31.0,19.1,29.73,West,277,4.0,4.0,61,0.00,,,0.00,Wunderground v.1.13,2013-02-20 11:10:00,
2013-02-20 06:15:00,31.0,18.7,29.73,NW,316,6.0,6.0,60,0.00,,,0.00,Wunderground v.1.13,2013-02-20 11:15:00,
2013-02-20 06:25:00,30.9,18.2,29.73,NW,320,6.0,11.0,59,0.00,,,0.00,Wunderground v.1.13,2013-02-20 11:25:00,
2013-02-20 06:30:00,30.7,18.1,29.73,West,281,7.0,8.0,59,0.00,,,0.00,Wunderground v.1.13,2013-02-20 11:30:00,
2013-02-20 06:35:00,30.6,18.0,29.73,WSW,254,6.0,7.0,59,0.00,,,0.00,Wunderground v.1.13,2013-02-20 11:35:00,
2013-02-20 06:40:00,30.6,18.0,29.73,SW,232,6.0,6.0,59,0.00,,,0.00,Wunderground v.1.13,2013-02-20 11:40:00,
2013-02-20 06:50:00,30.4,17.4,29.75,WSW,258,5.0,5.0,58,0.00,,,0.00,Wunderground v.1.13,2013-02-20 11:50:00,
2013-02-20 06:55:00,30.6,17.2,29.75,West,267,6.0,6.0,57,0.00,,,0.00,Wunderground v.1.13,2013-02-20 11:55:00,
2013-02-20 07:00:00,30.6,17.2,29.75,West,260,5.0,5.0,57,0.00,,,0.00,Wunderground v.1.13,2013-02-20 12:00:00,
2013-02-20 07:10:00,30.6,17.6,29.75,WNW,285,4.0,4.0,58,0.00,,,0.00,Wunderground v.1.13,2013-02-20 12:10:00,
2013-02-20 07:15:00,30.6,17.6,29.75,WNW,284,4.0,4.0,58,0.00,,,0.00,Wunderground v.1.13,2013-02-20 12:15:00,
2013-02-20 07:25:00,30.4,16.6,29.76,WSW,244,4.0,6.0,56,0.00,,,0.00,Wunderground v.1.13,2013-02-20 12:25:00,
2013-02-20 07:30:00,30.3,15.6,29.76,WSW,251,5.0,5.0,54,0.00,,,0.00,Wunderground v.1.13,2013-02-20 12:30:00,
2013-02-20 07:35:00,30.3,14.3,29.76,WSW,246,4.0,7.0,51,0.00,,,0.00,Wunderground v.1.13,2013-02-20 12:35:00,
2013-02-20 07:40:00,30.1,14.1,29.76,West,277,5.0,5.0,51,0.00,,,0.00,Wunderground v.1.13,2013-02-20 12:40:00,
2013-02-20 07:50:00,30.0,14.9,29.77,WNW,282,4.0,4.0,53,0.00,,,0.00,Wunderground v.1.13,2013-02-20 12:50:00,
2013-02-20 08:00:00,29.8,15.2,29.77,West,272,3.0,3.0,54,0.00,,,0.00,Wunderground v.1.13,2013-02-20 13:00:00,
2013-02-20 08:05:00,29.8,14.7,29.78,West,278,5.0,5.0,53,0.00,,,0.00,Wunderground v.1.13,2013-02-20 13:05:00,
2013-02-20 08:10:00,29.7,15.5,29.78,WSW,240,5.0,5.0,55,0.00,,,0.00,Wunderground v.1.13,2013-02-20 13:10:00,
2013-02-20 08:20:00,29.5,15.7,29.78,West,264,4.0,4.0,56,0.00,,,0.00,Wunderground v.1.13,2013-02-20 13:20:00,
2013-02-20 08:25:00,29.5,16.1,29.78,West,280,5.0,6.0,57,0.00,,,0.00,Wunderground v.1.13,2013-02-20 13:25:00,
2013-02-20 08:30:00,29.4,16.0,29.78,WNW,289,6.0,6.0,57,0.00,,,0.00,Wunderground v.1.13,2013-02-20 13:30:00,
2013-02-20 08:40:00,29.0,16.8,29.78,West,271,7.0,7.0,60,0.00,,,0.00,Wunderground v.1.13,2013-02-20 13:40:00,
2013-02-20 08:45:00,29.1,16.9,29.78,WNW,284,5.0,11.0,60,0.00,,,0.00,Wunderground v.1.13,2013-02-20 13:45:00,
2013-02-20 08:55:00,29.1,15.7,29.78,WNW,288,6.0,14.0,57,0.00,,,0.00,Wunderground v.1.13,2013-02-20 13:55:00,
2013-02-20 09:00:00,28.8,15.1,29.78,West,280,6.0,6.0,56,0.00,,,0.00,Wunderground v.1.13,2013-02-20 14:00:00,
2013-02-20 09:05:00,28.8,13.8,29.79,West,263,6.0,6.0,53,0.00,,,0.00,Wunderground v.1.13,2013-02-20 14:05:00,
2013-02-20 09:10:00,29.0,13.6,29.79,West,264,6.0,8.0,52,0.00,,,0.00,Wunderground v.1.13,2013-02-20 14:10:00,
2013-02-20 09:15:00,29.1,13.2,29.78,West,274,7.0,8.0,51,0.00,,,0.00,Wunderground v.1.13,2013-02-20 14:15:00,
2013-02-20 09:25:00,29.3,12.5,29.78,West,277,6.0,6.0,49,0.00,,,0.00,Wunderground v.1.13,2013-02-20 14:25:00,
2013-02-20 09:30:00,28.8,10.6,29.78,West,265,6.0,14.0,46,0.00,,,0.00,Wunderground v.1.13,2013-02-20 14:30:00,
2013-02-20 09:35:00,28.8,8.6,29.79,WNW,298,8.0,10.0,42,0.00,,,0.00,Wunderground v.1.13,2013-02-20 14:35:00,
2013-02-20 09:40:00,29.3,9.5,29.79,West,265,7.0,7.0,43,0.00,,,0.00,Wunderground v.1.13,2013-02-20 14:40:00,
2013-02-20 09:50:00,29.7,10.4,29.79,WSW,256,7.0,8.0,44,0.00,,,0.00,Wunderground v.1.13,2013-02-20 14:50:00,
2013-02-20 09:55:00,30.0,10.2,29.79,NE,41,7.0,7.0,43,0.00,,,0.00,Wunderground v.1.13,2013-02-20 14:55:00,
2013-02-20 10:00:00,29.8,10.0,29.79,NNW,347,8.0,8.0,43,0.00,,,0.00,Wunderground v.1.13,2013-02-20 15:00:00,
2013-02-20 10:10:00,30.3,9.9,29.79,NW,316,8.0,8.0,42,0.00,,,0.00,Wunderground v.1.13,2013-02-20 15:10:00,
2013-02-20 10:15:00,30.7,10.3,29.79,West,264,7.0,8.0,42,0.00,,,0.00,Wunderground v.1.13,2013-02-20 15:15:00,
2013-02-20 10:20:00,30.4,10.0,29.79,West,261,7.0,10.0,42,0.00,,,0.00,Wunderground v.1.13,2013-02-20 15:20:00,
2013-02-20 10:30:00,30.3,10.4,29.79,West,270,7.0,7.0,43,0.00,,,0.00,Wunderground v.1.13,2013-02-20 15:30:00,
2013-02-20 10:40:00,29.8,9.5,29.79,SW,220,7.0,10.0,42,0.00,,,0.00,Wunderground v.1.13,2013-02-20 15:40:00,
2013-02-20 10:45:00,29.7,9.4,29.79,WNW,285,8.0,8.0,42,0.00,,,0.00,Wunderground v.1.13,2013-02-20 15:45:00,
2013-02-20 10:50:00,30.0,9.1,29.79,West,267,8.0,8.0,41,0.00,,,0.00,Wunderground v.1.13,2013-02-20 15:50:00,
2013-02-20 10:55:00,30.3,10.4,29.79,WSW,257,7.0,8.0,43,0.00,,,0.00,Wunderground v.1.13,2013-02-20 15:55:00,
2013-02-20 11:05:00,31.0,11.1,29.79,WNW,294,5.0,5.0,43,0.00,,,0.00,Wunderground v.1.13,2013-02-20 16:05:00,
2013-02-20 11:10:00,30.7,9.2,29.79,West,265,7.0,7.0,40,0.00,,,0.00,Wunderground v.1.13,2013-02-20 16:10:00,
2013-02-20 11:15:00,30.6,10.7,29.79,West,265,8.0,11.0,43,0.00,,,0.00,Wunderground v.1.13,2013-02-20 16:15:00,
2013-02-20 11:25:00,30.3,8.8,29.79,WNW,291,8.0,8.0,40,0.00,,,0.00,Wunderground v.1.13,2013-02-20 16:25:00,
2013-02-20 11:30:00,30.6,9.1,29.79,West,281,7.0,11.0,40,0.00,,,0.00,Wunderground v.1.13,2013-02-20 16:30:00,
2013-02-20 11:40:00,30.9,8.8,29.79,West,278,7.0,11.0,39,0.00,,,0.00,Wunderground v.1.13,2013-02-20 16:40:00,
2013-02-20 11:50:00,30.9,8.2,29.78,WNW,282,8.0,11.0,38,0.00,,,0.00,Wunderground v.1.13,2013-02-20 16:50:00,
2013-02-20 11:55:00,31.3,9.2,29.78,West,263,7.0,7.0,39,0.00,,,0.00,Wunderground v.1.13,2013-02-20 16:55:00,
2013-02-20 12:04:00,31.0,8.9,29.78,SW,224,7.0,7.0,39,0.00,,,0.00,Wunderground v.1.13,2013-02-20 17:04:00,
2013-02-20 12:09:00,31.0,10.6,29.78,NW,304,7.0,7.0,42,0.00,,,0.00,Wunderground v.1.13,2013-02-20 17:09:00,
2013-02-20 12:14:00,31.2,9.6,29.78,West,265,5.0,8.0,40,0.00,,,0.00,Wunderground v.1.13,2013-02-20 17:14:00,
2013-02-20 12:24:00,30.7,10.3,29.78,SSW,203,5.0,5.0,42,0.00,,,0.00,Wunderground v.1.13,2013-02-20 17:24:00,
2013-02-20 12:39:00,30.3,8.8,29.78,NNW,339,4.0,4.0,40,0.00,,,0.00,Wunderground v.1.13,2013-02-20 17:39:00,
2013-02-20 12:45:00,30.4,9.5,29.78,West,280,5.0,9.0,41,0.00,,,0.00,Wunderground v.1.13,2013-02-20 17:45:00,
2013-02-20 12:55:00,30.3,9.4,29.78,West,274,4.0,6.0,41,0.00,,,0.00,Wunderground v.1.13,2013-02-20 17:55:00,
2013-02-20 13:00:00,30.3,8.8,29.78,WNW,295,5.0,5.0,40,0.00,,,0.00,Wunderground v.1.13,2013-02-20 18:00:00,
2013-02-20 13:05:00,30.0,8.6,29.78,West,280,5.0,5.0,40,0.00,,,0.00,Wunderground v.1.13,2013-02-20 18:05:00,
2013-02-20 13:10:00,30.1,9.2,29.78,SW,233,5.0,5.0,41,0.00,,,0.00,Wunderground v.1.13,2013-02-20 18:10:00,
2013-02-20 13:15:00,30.3,8.8,29.78,NNE,21,4.0,4.0,40,0.00,,,0.00,Wunderground v.1.13,2013-02-20 18:15:00,
2013-02-20 13:20:00,30.3,8.3,29.78,West,264,6.0,10.0,39,0.00,,,0.00,Wunderground v.1.13,2013-02-20 18:20:00,
2013-02-20 13:25:00,30.1,8.7,29.78,NW,311,8.0,12.0,40,0.00,,,0.00,Wunderground v.1.13,2013-02-20 18:25:00,
2013-02-20 13:30:00,30.3,7.7,29.78,WNW,301,9.0,9.0,38,0.00,,,0.00,Wunderground v.1.13,2013-02-20 18:30:00,
2013-02-20 13:40:00,30.7,8.6,29.78,West,271,8.0,13.0,39,0.00,,,0.00,Wunderground v.1.13,2013-02-20 18:40:00,
2013-02-20 13:45:00,30.3,8.3,29.78,West,280,9.0,9.0,39,0.00,,,0.00,Wunderground v.1.13,2013-02-20 18:45:00,
2013-02-20 13:50:00,30.1,8.1,29.78,West,265,9.0,9.0,39,0.00,,,0.00,Wunderground v.1.13,2013-02-20 18:50:00,
2013-02-20 13:55:00,29.8,7.8,29.78,West,267,8.0,8.0,39,0.00,,,0.00,Wunderground v.1.13,2013-02-20 18:55:00,
2013-02-20 14:00:00,29.8,7.8,29.78,WNW,284,9.0,12.0,39,0.00,,,0.00,Wunderground v.1.13,2013-02-20 19:00:00,
2013-02-20 14:05:00,29.4,7.5,29.78,West,268,10.0,10.0,39,0.00,,,0.00,Wunderground v.1.13,2013-02-20 19:05:00,
2013-02-20 14:10:00,29.5,8.7,29.78,WSW,258,8.0,12.0,41,0.00,,,0.00,Wunderground v.1.13,2013-02-20 19:10:00,
2013-02-20 14:15:00,29.5,8.7,29.78,WNW,282,9.0,9.0,41,0.00,,,0.00,Wunderground v.1.13,2013-02-20 19:15:00,
2013-02-20 14:20:00,29.7,8.8,29.78,NNW,344,8.0,8.0,41,0.00,,,0.00,Wunderground v.1.13,2013-02-20 19:20:00,
2013-02-20 14:25:00,30.9,9.9,29.78,West,270,5.0,5.0,41,0.00,,,0.00,Wunderground v.1.13,2013-02-20 19:25:00,
2013-02-20 14:30:00,30.6,9.7,29.79,WSW,254,7.0,7.0,41,0.00,,,0.00,Wunderground v.1.13,2013-02-20 19:30:00,
2013-02-20 14:40:00,30.0,9.1,29.79,South,172,9.0,9.0,41,0.00,,,0.00,Wunderground v.1.13,2013-02-20 19:40:00,
2013-02-20 14:45:00,30.0,9.1,29.79,West,264,7.0,7.0,41,0.00,,,0.00,Wunderground v.1.13,2013-02-20 19:45:00,
2013-02-20 14:50:00,29.7,8.3,29.79,WNW,289,6.0,8.0,40,0.00,,,0.00,Wunderground v.1.13,2013-02-20 19:50:00,
2013-02-20 14:55:00,29.7,8.3,29.79,West,277,8.0,11.0,40,0.00,,,0.00,Wunderground v.1.13,2013-02-20 19:55:00,
2013-02-20 15:00:00,30.1,9.2,29.79,WNW,287,8.0,11.0,41,0.00,,,0.00,Wunderground v.1.13,2013-02-20 20:00:00,
2013-02-20 15:05:00,30.1,9.2,29.79,North,0,7.0,7.0,41,0.00,,,0.00,Wunderground v.1.13,2013-02-20 20:05:00,
2013-02-20 15:15:00,29.5,8.7,29.80,WNW,295,8.0,8.0,41,0.00,,,0.00,Wunderground v.1.13,2013-02-20 20:15:00,
2013-02-20 15:20:00,29.5,8.7,29.80,West,274,8.0,9.0,41,0.00,,,0.00,Wunderground v.1.13,2013-02-20 20:20:00,
2013-02-20 15:30:00,29.4,8.6,29.80,WNW,298,6.0,6.0,41,0.00,,,0.00,Wunderground v.1.13,2013-02-20 20:30:00,
2013-02-20 15:35:00,-999.9,-99.9,29.81,North,32767,-999.0,0.0,255,-99.99,,,0.00,Wunderground v.1.13,2013-02-20 20:35:00,
2013-02-20 15:40:00,-999.9,-99.9,29.81,North,32767,-999.0,0.0,255,-99.99,,,0.00,Wunderground v.1.13,2013-02-20 20:40:00,
2013-02-20 15:50:00,29.3,7.9,29.80,SW,222,7.0,7.0,40,0.00,,,0.00,Wunderground v.1.13,2013-02-20 20:50:00,
2013-02-20 15:55:00,29.3,8.5,29.80,WNW,288,9.0,9.0,41,0.00,,,0.00,Wunderground v.1.13,2013-02-20 20:55:00,
2013-02-20 16:00:00,29.4,9.1,29.80,WNW,288,7.0,7.0,42,0.00,,,0.00,Wunderground v.1.13,2013-02-20 21:00:00,
2013-02-20 16:05:00,29.1,9.9,29.81,WNW,288,6.0,6.0,44,0.00,,,0.00,Wunderground v.1.13,2013-02-20 21:05:00,
2013-02-20 16:10:00,29.1,9.9,29.81,West,265,5.0,5.0,44,0.00,,,0.00,Wunderground v.1.13,2013-02-20 21:10:00,
2013-02-20 16:15:00,29.0,9.8,29.81,WSW,257,5.0,6.0,44,0.00,,,0.00,Wunderground v.1.13,2013-02-20 21:15:00,
2013-02-20 16:25:00,29.1,8.8,29.81,West,271,6.0,6.0,42,0.00,,,0.00,Wunderground v.1.13,2013-02-20 21:25:00,
2013-02-20 16:30:00,29.1,8.8,29.81,WNW,288,6.0,6.0,42,0.00,,,0.00,Wunderground v.1.13,2013-02-20 21:30:00,
2013-02-20 16:35:00,29.1,9.4,29.81,WNW,285,6.0,6.0,43,0.00,,,0.00,Wunderground v.1.13,2013-02-20 21:35:00,
2013-02-20 16:40:00,29.4,9.1,29.81,West,264,5.0,6.0,42,0.00,,,0.00,Wunderground v.1.13,2013-02-20 21:40:00,
2013-02-20 16:45:00,29.4,10.1,29.81,North,1,6.0,6.0,44,0.00,,,0.00,Wunderground v.1.13,2013-02-20 21:45:00,
2013-02-20 16:50:00,29.4,9.6,29.82,WNW,291,6.0,6.0,43,0.00,,,0.00,Wunderground v.1.13,2013-02-20 21:50:00,
2013-02-20 16:55:00,29.3,10.1,29.82,NNW,347,4.0,4.0,44,0.00,,,0.00,Wunderground v.1.13,2013-02-20 21:55:00,
2013-02-20 17:00:00,29.0,11.3,29.83,West,268,4.0,5.0,47,0.00,,,0.00,Wunderground v.1.13,2013-02-20 22:00:00,
2013-02-20 17:10:00,29.0,8.7,29.83,West,261,5.0,5.0,42,0.00,,,0.00,Wunderground v.1.13,2013-02-20 22:10:00,
2013-02-20 17:15:00,29.0,9.3,29.83,SSE,162,7.0,7.0,43,0.00,,,0.00,Wunderground v.1.13,2013-02-20 22:15:00,
2013-02-20 17:20:00,29.0,7.7,29.83,ENE,76,7.0,7.0,40,0.00,,,0.00,Wunderground v.1.13,2013-02-20 22:20:00,
2013-02-20 17:25:00,29.0,8.2,29.83,WNW,287,7.0,10.0,41,0.00,,,0.00,Wunderground v.1.13,2013-02-20 22:25:00,
2013-02-20 17:30:00,28.8,7.5,29.83,WSW,253,7.0,8.0,40,0.00,,,0.00,Wunderground v.1.13,2013-02-20 22:30:00,
2013-02-20 17:35:00,28.7,7.4,29.84,West,277,9.0,9.0,40,0.00,,,0.00,Wunderground v.1.13,2013-02-20 22:35:00,
2013-02-20 17:40:00,28.7,7.9,29.84,West,277,9.0,9.0,41,0.00,,,0.00,Wunderground v.1.13,2013-02-20 22:40:00,
2013-02-20 17:45:00,28.7,7.9,29.85,West,280,8.0,8.0,41,0.00,,,0.00,Wunderground v.1.13,2013-02-20 22:45:00,
2013-02-20 17:50:00,28.4,9.7,29.85,NW,308,9.0,10.0,45,0.00,,,0.00,Wunderground v.1.13,2013-02-20 22:50:00,
2013-02-20 17:55:00,28.2,10.5,29.85,West,261,8.0,8.0,47,0.00,,,0.00,Wunderground v.1.13,2013-02-20 22:55:00,
2013-02-20 18:05:00,28.1,11.4,29.86,West,281,7.0,7.0,49,0.00,,,0.00,Wunderground v.1.13,2013-02-20 23:05:00,
2013-02-20 18:10:00,27.9,10.7,29.86,West,265,6.0,9.0,48,0.00,,,0.00,Wunderground v.1.13,2013-02-20 23:10:00,
2013-02-20 18:15:00,27.9,10.2,29.86,West,270,5.0,5.0,47,0.00,,,0.00,Wunderground v.1.13,2013-02-20 23:15:00,
2013-02-20 18:20:00,27.6,9.0,29.87,WNW,299,4.0,14.0,45,0.00,,,0.00,Wunderground v.1.13,2013-02-20 23:20:00,
2013-02-20 18:25:00,27.5,8.4,29.87,West,260,8.0,9.0,44,0.00,,,0.00,Wunderground v.1.13,2013-02-20 23:25:00,
2013-02-20 18:30:00,27.5,9.4,29.87,WNW,285,9.0,9.0,46,0.00,,,0.00,Wunderground v.1.13,2013-02-20 23:30:00,
2013-02-20 18:40:00,27.2,9.6,29.86,WNW,292,7.0,7.0,47,0.00,,,0.00,Wunderground v.1.13,2013-02-20 23:40:00,
2013-02-20 18:45:00,27.2,9.6,29.86,West,275,7.0,11.0,47,0.00,,,0.00,Wunderground v.1.13,2013-02-20 23:45:00,
2013-02-20 18:50:00,27.0,9.4,29.88,West,277,7.0,7.0,47,0.00,,,0.00,Wunderground v.1.13,2013-02-20 23:50:00,
2013-02-20 18:55:00,27.0,9.4,29.88,West,268,8.0,8.0,47,0.00,,,0.00,Wunderground v.1.13,2013-02-20 23:55:00,
2013-02-20 19:00:00,26.9,8.4,29.88,WNW,284,7.0,7.0,45,0.00,,,0.00,Wunderground v.1.13,2013-02-21 00:00:00,
2013-02-20 19:05:00,26.7,7.7,29.88,WNW,294,8.0,8.0,44,0.00,,,0.00,Wunderground v.1.13,2013-02-21 00:05:00,
2013-02-20 19:10:00,26.7,7.7,29.88,West,263,9.0,11.0,44,0.00,,,0.00,Wunderground v.1.13,2013-02-21 00:10:00,
2013-02-20 19:15:00,26.6,7.6,29.88,WSW,253,8.0,10.0,44,0.00,,,0.00,Wunderground v.1.13,2013-02-21 00:15:00,
2013-02-20 19:20:00,26.4,7.4,29.89,SW,220,7.0,7.0,44,0.00,,,0.00,Wunderground v.1.13,2013-02-21 00:20:00,
2013-02-20 19:25:00,26.3,6.8,29.89,West,270,8.0,11.0,43,0.00,,,0.00,Wunderground v.1.13,2013-02-21 00:25:00,
2013-02-20 19:30:00,26.3,6.8,29.89,WNW,299,9.0,9.0,43,0.00,,,0.00,Wunderground v.1.13,2013-02-21 00:30:00,
2013-02-20 19:35:00,26.1,7.1,29.89,North,356,8.0,8.0,44,0.00,,,0.00,Wunderground v.1.13,2013-02-21 00:35:00,
2013-02-20 19:40:00,26.0,7.5,29.89,West,280,6.0,6.0,45,0.00,,,0.00,Wunderground v.1.13,2013-02-21 00:40:00,
2013-02-20 19:50:00,26.0,7.5,29.89,NNW,330,4.0,4.0,45,0.00,,,0.00,Wunderground v.1.13,2013-02-21 00:50:00,
2013-02-20 19:55:00,25.8,7.8,29.89,West,265,5.0,6.0,46,0.00,,,0.00,Wunderground v.1.13,2013-02-21 00:55:00,
2013-02-20 20:00:00,25.7,8.2,29.89,WNW,292,5.0,5.0,47,0.00,,,0.00,Wunderground v.1.13,2013-02-21 01:00:00,
2013-02-20 20:05:00,25.7,8.2,29.90,West,265,4.0,5.0,47,0.00,,,0.00,Wunderground v.1.13,2013-02-21 01:05:00,
2013-02-20 20:10:00,25.7,8.7,29.90,West,264,4.0,4.0,48,0.00,,,0.00,Wunderground v.1.13,2013-02-21 01:10:00,
2013-02-20 20:20:00,25.6,8.1,29.90,West,268,7.0,7.0,47,0.00,,,0.00,Wunderground v.1.13,2013-02-21 01:20:00,
2013-02-20 20:25:00,25.4,7.9,29.90,West,280,8.0,12.0,47,0.00,,,0.00,Wunderground v.1.13,2013-02-21 01:25:00,
2013-02-20 20:30:00,25.4,8.4,29.90,WSW,254,8.0,8.0,48,0.00,,,0.00,Wunderground v.1.13,2013-02-21 01:30:00,
2013-02-20 20:35:00,25.3,8.3,29.89,West,260,6.0,8.0,48,0.00,,,0.00,Wunderground v.1.13,2013-02-21 01:35:00,
2013-02-20 20:40:00,25.3,7.9,29.89,WNW,284,7.0,9.0,47,0.00,,,0.00,Wunderground v.1.13,2013-02-21 01:40:00,
2013-02-20 20:45:00,25.1,8.1,29.89,WNW,287,7.0,12.0,48,0.00,,,0.00,Wunderground v.1.13,2013-02-21 01:45:00,
2013-02-20 20:55:00,25.1,8.1,29.89,WNW,294,8.0,11.0,48,0.00,,,0.00,Wunderground v.1.13,2013-02-21 01:55:00,
2013-02-20 21:00:00,25.0,8.0,29.89,North,3,9.0,9.0,48,0.00,,,0.00,Wunderground v.1.13,2013-02-21 02:00:00,
2013-02-20 21:05:00,25.0,7.6,29.90,West,260,8.0,8.0,47,0.00,,,0.00,Wunderground v.1.13,2013-02-21 02:05:00,
2013-02-20 21:10:00,25.0,8.0,29.90,NW,312,8.0,8.0,48,0.00,,,0.00,Wunderground v.1.13,2013-02-21 02:10:00,
2013-02-20 21:20:00,24.8,8.3,29.89,WNW,291,8.0,8.0,49,0.00,,,0.00,Wunderground v.1.13,2013-02-21 02:20:00,
2013-02-20 21:25:00,24.8,8.3,29.89,West,277,8.0,8.0,49,0.00,,,0.00,Wunderground v.1.13,2013-02-21 02:25:00,
2013-02-20 21:30:00,24.7,8.2,29.89,North,353,7.0,7.0,49,0.00,,,0.00,Wunderground v.1.13,2013-02-21 02:30:00,
2013-02-20 21:35:00,24.7,8.2,29.89,West,277,5.0,10.0,49,0.00,,,0.00,Wunderground v.1.13,2013-02-21 02:35:00,
2013-02-20 21:40:00,24.7,8.2,29.89,WNW,288,6.0,9.0,49,0.00,,,0.00,Wunderground v.1.13,2013-02-21 02:40:00,
2013-02-20 21:45:00,24.7,8.7,29.89,West,270,7.0,14.0,50,0.00,,,0.00,Wunderground v.1.13,2013-02-21 02:45:00,
2013-02-20 21:50:00,24.7,8.7,29.89,West,263,7.0,7.0,50,0.00,,,0.00,Wunderground v.1.13,2013-02-21 02:50:00,
2013-02-20 21:55:00,24.7,9.1,29.89,West,267,6.0,12.0,51,0.00,,,0.00,Wunderground v.1.13,2013-02-21 02:55:00,
2013-02-20 22:05:00,24.5,8.9,29.89,WNW,285,7.0,13.0,51,0.00,,,0.00,Wunderground v.1.13,2013-02-21 03:05:00,
2013-02-20 22:10:00,24.5,8.5,29.89,WSW,241,9.0,9.0,50,0.00,,,0.00,Wunderground v.1.13,2013-02-21 03:10:00,
2013-02-20 22:15:00,24.4,8.8,29.89,West,272,7.0,7.0,51,0.00,,,0.00,Wunderground v.1.13,2013-02-21 03:15:00,
2013-02-20 22:20:00,24.4,9.3,29.91,West,274,4.0,6.0,52,0.00,,,0.00,Wunderground v.1.13,2013-02-21 03:20:00,
2013-02-20 22:25:00,24.4,9.3,29.91,WNW,292,4.0,11.0,52,0.00,,,0.00,Wunderground v.1.13,2013-02-21 03:25:00,
2013-02-20 22:30:00,24.4,9.3,29.91,WNW,287,5.0,5.0,52,0.00,,,0.00,Wunderground v.1.13,2013-02-21 03:30:00,
2013-02-20 22:35:00,24.2,9.1,29.91,WNW,284,5.0,6.0,52,0.00,,,0.00,Wunderground v.1.13,2013-02-21 03:35:00,
2013-02-20 22:40:00,24.2,9.1,29.91,West,280,4.0,6.0,52,0.00,,,0.00,Wunderground v.1.13,2013-02-21 03:40:00,
2013-02-20 22:50:00,24.2,9.5,29.92,North,0,5.0,5.0,53,0.00,,,0.00,Wunderground v.1.13,2013-02-21 03:50:00,
2013-02-20 22:55:00,24.2,9.5,29.92,WNW,282,5.0,5.0,53,0.00,,,0.00,Wunderground v.1.13,2013-02-21 03:55:00,
2013-02-20 23:00:00,24.2,9.5,29.92,WNW,294,6.0,6.0,53,0.00,,,0.00,Wunderground v.1.13,2013-02-21 04:00:00,
2013-02-20 23:05:00,24.2,9.1,29.92,West,275,7.0,13.0,52,0.00,,,0.00,Wunderground v.1.13,2013-02-21 04:05:00,
2013-02-20 23:10:00,24.1,9.4,29.92,WNW,302,7.0,14.0,53,0.00,,,0.00,Wunderground v.1.13,2013-02-21 04:10:00,
2013-02-20 23:20:00,24.2,9.5,29.92,West,272,7.0,12.0,53,0.00,,,0.00,Wunderground v.1.13,2013-02-21 04:20:00,
2013-02-20 23:25:00,24.2,9.5,29.92,West,267,7.0,7.0,53,0.00,,,0.00,Wunderground v.1.13,2013-02-21 04:25:00,
2013-02-20 23:30:00,24.2,9.5,29.92,West,275,6.0,6.0,53,0.00,,,0.00,Wunderground v.1.13,2013-02-21 04:30:00,
2013-02-20 23:35:00,24.1,9.4,29.92,WNW,291,4.0,4.0,53,0.00,,,0.00,Wunderground v.1.13,2013-02-21 04:35:00,
2013-02-20 23:40:00,24.1,9.8,29.92,WNW,298,3.0,3.0,54,0.00,,,0.00,Wunderground v.1.13,2013-02-21 04:40:00,
2013-02-20 23:45:00,24.1,9.8,29.92,West,272,2.0,2.0,54,0.00,,,0.00,Wunderground v.1.13,2013-02-21 04:45:00,
2013-02-20 23:50:00,24.1,9.4,29.92,WNW,289,3.0,5.0,53,0.00,,,0.00,Wunderground v.1.13,2013-02-21 04:50:00,
2013-02-20 23:55:00,24.1,9.8,29.92,West,267,3.0,3.0,54,0.00,,,0.00,Wunderground v.1.13,2013-02-21 04:55:00,